1485349200.14,14122,10.81,73464.3,-3.01,-35.83,-36.01,0,*5F
1485349201.43,14123,10.81,73466.5,-3.01,-35.83,-36.13,0,*5D
1485349202.71,14124,10.81,73464.5,-3.01,-36.13,-36.37,0,*56
1485349203.97,14125,10.81,73464.3,-3.03,-35.65,-35.95,0,*5C
1485349205.23,14126,10.81,73464.3,-3.01,-35.65,-36.01,0,*53
1485349206.44,14127,10.81,73466.0,-2.99,-35.71,-36.07,0,*51
1485349207.68,14128,10.81,73464.5,-2.99,-35.77,-36.13,0,*5D
1485349208.94,14129,10.88,73468.0,-2.97,-35.71,-35.95,0,*59
1485349210.19,14130,10.81,73464.3,-2.97,-35.41,-35.59,0,*52
1485349211.47,14131,10.81,73466.0,-2.97,-35.35,-35.41,0,*59
1485349212.71,14132,10.81,73466.5,-2.91,-35.29,-35.53,0,*52
1485349213.95,14133,10.81,73466.0,-2.95,-35.29,-35.35,0,*57
1485349215.18,14134,10.81,73464.8,-2.91,-35.17,-35.35,0,*59
1485349216.39,14135,10.81,73466.8,-2.95,-35.17,-35.47,0,*59
1485349217.65,14136,10.81,73464.0,-2.89,-35.23,-35.59,0,*5F
1485349218.88,14137,10.81,73464.5,-2.89,-35.77,-36.07,0,*57
1485349220.15,14138,10.81,73464.5,-2.89,-35.47,-35.95,0,*53
1485349221.41,14139,10.81,73466.5,-2.89,-35.59,-35.83,0,*5A
1485349222.62,14140,10.81,73470.3,-2.87,-35.77,-36.07,0,*59
1485349223.86,14141,10.88,73470.8,-2.87,-35.47,-35.83,0,*54
1485349225.11,14142,10.81,73468.5,-2.87,-35.77,-35.95,0,*53
1485349226.34,14143,10.81,73466.0,-2.87,-35.65,-36.01,0,*5F
1485349227.55,14144,10.81,73470.3,-2.87,-35.77,-36.07,0,*5D
1485349228.82,14145,10.81,73466.5,-2.85,-35.59,-35.95,0,*5A
1485349230.03,14146,10.81,73468.8,-2.83,-35.71,-35.89,0,*58
1485349231.29,14147,10.81,73466.5,-2.83,-35.53,-35.95,0,*54
1485349232.58,14148,10.81,73468.5,-2.85,-35.53,-35.95,0,*5D
1485349233.84,14149,10.81,73468.5,-2.85,-35.53,-35.89,0,*51
1485349235.05,14150,10.81,73468.3,-2.83,-35.59,-35.77,0,*54
1485349236.28,14151,10.81,73470.3,-2.83,-35.95,-36.31,0,*54
1485349237.5,14152,10.81,73464.8,-2.83,-35.71,-35.89,0,*5D
1485349238.74,14153,10.81,73466.8,-2.81,-35.53,-35.71,0,*59
1485349240.02,14154,10.81,73466.8,-2.81,-35.53,-35.83,0,*53
1485349241.29,14155,10.81,73470.8,-2.81,-35.53,-35.65,0,*5A
1485349242.52,14156,10.81,73466.8,-2.79,-35.59,-35.83,0,*5C
1485349243.73,14157,10.81,73468.5,-2.79,-35.59,-35.77,0,*56
1485349244.99,14158,10.88,73468.5,-2.79,-35.23,-35.65,0,*57
1485349246.25,14159,10.88,73468.5,-2.77,-35.59,-35.83,0,*5D
1485349247.51,14160,10.81,73468.8,-2.77,-35.23,-35.59,0,*5D
1485349248.74,14161,10.81,73468.3,-2.77,-35.77,-36.07,0,*55
1485349250.01,14162,10.81,73468.3,-2.75,-35.59,-35.95,0,*50
1485349251.24,14163,10.88,73470.5,-2.77,-35.89,-36.19,0,*59
1485349252.49,14164,10.88,73468.5,-2.73,-35.53,-35.83,0,*5D
1485349253.74,14165,10.81,73464.8,-2.75,-35.71,-36.01,0,*53
1485349254.99,14166,10.81,73470.3,-2.77,-36.01,-36.13,0,*55
1485349256.26,14167,10.81,73470.3,-2.75,-35.95,-36.19,0,*52
1485349257.5,14168,10.88,73468.5,-2.75,-35.59,-35.77,0,*56
1485349258.76,14169,10.88,73474.3,-2.75,-35.77,-36.13,0,*5A
1485349260.03,14170,10.81,73468.8,-2.75,-35.83,-36.01,0,*5A
1485349261.27,14171,10.81,73468.8,-2.73,-36.37,-36.67,0,*51
1485349262.52,14172,10.81,73464.8,-2.73,-36.13,-36.37,0,*51
1485349263.78,14173,10.81,73466.5,-2.73,-35.95,-36.13,0,*5B
1485349265.02,14174,10.81,73468.5,-2.73,-35.59,-35.95,0,*51
1485349266.27,14175,10.88,73470.5,-2.73,-36.13,-36.49,0,*5F
1485349267.5,14176,10.88,73470.5,-2.73,-36.19,-36.37,0,*5F
1485349268.74,14177,10.81,73468.0,-2.69,-36.49,-36.85,0,*59
1485349269.95,14178,10.81,73470.8,-2.73,-37.03,-37.15,0,*5A
1485349271.15,14179,10.81,73470.5,-2.73,-36.01,-36.19,0,*55
1485349272.37,14180,10.81,73470.5,-2.73,-35.59,-35.77,0,*56
1485349273.6,14181,10.81,73470.3,-2.69,-35.89,-36.13,0,*50
1485349274.82,14182,10.81,73470.0,-2.69,-36.07,-36.31,0,*56
1485349276.06,14183,10.88,73468.8,-2.69,-35.89,-36.25,0,*57
1485349277.33,14184,10.88,73470.5,-2.69,-36.13,-36.25,0,*50
1485349278.57,14185,10.88,73468.5,-2.69,-35.53,-35.89,0,*53
1485349279.85,14186,10.81,73468.8,-2.67,-36.13,-36.25,0,*5C
1485349281.09,14187,10.81,73466.8,-2.69,-35.65,-35.89,0,*54
1485349282.38,14188,10.81,73470.0,-2.67,-36.13,-36.25,0,*52
1485349283.64,14189,10.81,73466.5,-2.67,-35.65,-35.89,0,*54
1485349284.88,14190,10.81,73464.5,-2.67,-35.47,-35.77,0,*5D
1485349286.14,14191,10.88,73468.0,-2.65,-35.65,-35.83,0,*55
1485349287.34,14192,10.88,73470.0,-2.65,-35.47,-35.71,0,*5B
1485349288.55,14193,10.81,73464.8,-2.65,-35.47,-35.71,0,*5A
1485349289.76,14194,10.81,73470.5,-2.65,-35.89,-36.07,0,*5D
1485349290.97,14195,10.81,73464.0,-2.65,-35.71,-35.89,0,*5E
1485349292.21,14196,10.88,73470.0,-2.65,-35.83,-36.01,0,*53
1485349293.45,14197,10.88,73468.3,-2.65,-35.47,-35.83,0,*53
1485349294.73,14198,10.81,73468.8,-2.63,-35.65,-35.83,0,*5A
1485349295.98,14199,10.81,73470.0,-2.61,-35.41,-35.65,0,*57
1485349297.22,14200,10.88,73468.3,-2.59,-35.59,-35.77,0,*55
1485349298.46,14201,10.81,73468.5,-2.61,-35.77,-35.83,0,*58
1485349299.74,14202,10.81,73468.0,-2.59,-35.65,-35.83,0,*53
1485349301.03,14203,10.81,73466.8,-2.59,-35.65,-35.83,0,*52
1485349302.31,14204,10.88,73468.5,-2.59,-35.35,-35.53,0,*5D
1485349303.55,14205,10.88,73470.0,-2.57,-35.77,-35.95,0,*5E
1485349304.81,14206,10.81,73468.5,-2.59,-35.95,-36.19,0,*58
1485349306.03,14207,10.88,73468.5,-2.57,-35.53,-35.71,0,*50
1485349307.23,14208,10.81,73466.5,-2.57,-35.71,-36.07,0,*5D
1485349308.46,14209,10.88,73472.0,-2.57,-36.07,-36.13,0,*5B
1485349309.72,14210,10.81,73468.3,-2.57,-36.25,-36.49,0,*5C
1485349310.92,14211,10.88,73468.0,-2.57,-35.77,-36.07,0,*53
1485349312.13,14212,10.81,73470.3,-2.57,-35.59,-35.89,0,*59
1485349313.4,14213,10.88,73472.3,-2.59,-35.77,-35.83,0,*50
1485349314.64,14214,10.88,73468.0,-2.57,-35.77,-35.95,0,*5E
1485349315.85,14215,10.81,73468.3,-2.57,-36.43,-36.67,0,*55
1485349317.06,14216,10.88,73468.8,-2.57,-35.77,-36.07,0,*54
1485349318.31,14217,10.81,73468.8,-2.55,-36.55,-36.79,0,*5D
1485349319.55,14218,10.81,73464.5,-2.55,-36.07,-36.43,0,*5C
1485349320.79,14219,10.81,73466.5,-2.55,-35.53,-35.71,0,*5D
1485349322.05,14220,10.88,73468.5,-2.55,-35.83,-36.07,0,*58
1485349323.31,14221,10.88,73472.0,-2.55,-36.01,-36.25,0,*50
1485349324.52,14222,10.88,73468.5,-2.53,-36.43,-36.73,0,*50
1485349325.81,14223,10.88,73468.8,-2.55,-35.83,-36.25,0,*5B
1485349327.02,14224,10.81,73470.3,-2.53,-35.71,-36.01,0,*51
1485349328.25,14225,10.88,73468.8,-2.55,-36.19,-36.43,0,*5D
1485349329.51,14226,10.88,73474.8,-2.55,-35.83,-36.07,0,*5E
1485349330.72,14227,10.81,73466.0,-2.53,-35.89,-36.07,0,*53
1485349331.95,14228,10.81,73466.5,-2.53,-36.07,-36.37,0,*5A
1485349333.2,14229,10.88,73472.0,-2.51,-35.59,-35.83,0,*5D
1485349334.47,14230,10.88,73468.0,-2.51,-35.41,-35.65,0,*54
1485349335.71,14231,10.88,73470.0,-2.49,-35.83,-36.01,0,*53
1485349336.99,14232,10.88,73470.0,-2.51,-36.13,-36.49,0,*5F
1485349338.24,14233,10.81,73466.0,-2.49,-35.95,-36.37,0,*53
1485349339.49,14234,10.88,73468.3,-2.51,-36.19,-36.49,0,*53
1485349340.72,14235,10.88,73470.5,-2.49,-35.65,-35.77,0,*5D
1485349342.01,14236,10.88,73470.3,-2.51,-35.95,-36.13,0,*59
1485349343.24,14237,10.81,73464.3,-2.51,-36.97,-37.15,0,*5E
1485349344.48,14238,10.81,73464.3,-2.51,-36.67,-36.73,0,*5F
1485349345.73,14239,10.81,73464.0,-2.51,-35.95,-36.19,0,*5C
1485349346.99,14240,10.88,73466.3,-2.51,-36.55,-36.79,0,*5B
1485349348.24,14241,10.88,73466.0,-2.51,-36.19,-36.37,0,*58
1485349349.45,14242,10.88,73468.8,-2.49,-35.77,-36.01,0,*5C
1485349350.71,14243,10.88,73468.0,-2.51,-37.15,-37.51,0,*56
1485349351.94,14244,10.81,73466.0,-2.51,-37.15,-37.45,0,*54
1485349353.21,14245,10.81,73464.8,-2.51,-36.13,-36.37,0,*56
1485349354.47,14246,10.81,73462.5,-2.51,-35.95,-36.31,0,*5E
1485349355.75,14247,10.88,73464.5,-2.51,-35.95,-36.13,0,*5F
1485349357.03,14248,10.88,73466.0,-2.51,-35.95,-36.37,0,*56
1485349358.24,14249,10.88,73464.0,-2.49,-36.73,-36.97,0,*5F
1485349359.47,14250,10.88,73464.3,-2.51,-36.01,-36.31,0,*57
1485349360.72,14251,10.88,73462.8,-2.51,-36.79,-36.97,0,*55
1485349362.0,14252,10.88,73464.5,-2.51,-36.49,-36.79,0,*55
1485349363.23,14253,10.88,73464.3,-2.51,-36.01,-36.19,0,*5E
1485349364.44,14254,10.81,73464.5,-2.49,-36.31,-36.67,0,*5A
1485349365.67,14255,10.81,73464.0,-2.51,-36.97,-37.45,0,*5F
1485349366.93,14256,10.81,73462.5,-2.51,-37.69,-37.87,0,*52
1485349368.16,14257,10.88,73464.3,-2.49,-37.45,-37.81,0,*52
1485349369.36,14258,10.88,73466.5,-2.53,-36.55,-36.85,0,*53
1485349370.57,14259,10.88,73470.0,-2.53,-36.19,-36.43,0,*50
1485349371.78,14260,10.81,73462.0,-2.53,-36.01,-36.19,0,*5C
1485349373.03,14261,10.88,73464.0,-2.53,-35.53,-35.83,0,*59
1485349374.31,14262,10.88,73466.8,-2.51,-35.83,-36.13,0,*5F
1485349375.55,14263,10.81,73464.5,-2.49,-35.95,-36.01,0,*53
1485349376.78,14264,10.81,73462.3,-2.49,-36.91,-37.27,0,*56
1485349378.01,14265,10.88,73466.0,-2.49,-36.73,-36.79,0,*51
1485349379.27,14266,10.88,73470.0,-2.51,-35.95,-36.31,0,*5C
1485349380.52,14267,10.88,73468.5,-2.49,-35.95,-36.37,0,*52
1485349381.75,14268,10.88,73466.3,-2.49,-36.79,-37.15,0,*5D
1485349383.0,14269,10.88,73468.0,-2.51,-35.95,-36.19,0,*59
1485349384.26,14270,10.88,73470.3,-2.51,-38.05,-38.49,0,*5E
1485349385.52,14271,10.88,73468.8,-2.49,-37.63,-37.81,0,*52
1485349386.78,14272,10.88,73470.8,-2.51,-37.15,-37.51,0,*54
1485349388.01,14273,10.88,73468.5,-2.53,-37.51,-37.75,0,*51
1485349389.22,14274,10.88,73468.5,-2.53,-36.85,-36.97,0,*53
1485349390.43,14275,10.81,73468.3,-2.53,-36.97,-37.33,0,*5E
1485349391.67,14276,10.88,73470.3,-2.53,-37.21,-37.57,0,*53
1485349392.9,14277,10.81,73468.5,-2.53,-38.17,-38.67,0,*54
1485349394.13,14278,10.81,73470.0,-2.57,-38.79,-39.09,0,*5E
1485349395.36,14279,10.88,73472.0,-2.57,-38.73,-39.15,0,*58
1485349396.62,14280,10.88,73474.3,-2.59,-39.41,-39.85,0,*59
1485349397.88,14281,10.81,73470.5,-2.59,-37.51,-37.87,0,*5B
1485349399.11,14282,10.88,73468.5,-2.63,-38.05,-38.17,0,*59
1485349400.34,14283,10.88,73468.0,-2.61,-37.69,-38.05,0,*5C
1485349401.62,14284,10.88,73462.0,-2.63,-37.93,-38.11,0,*59
1485349402.88,14285,10.88,73466.3,-2.63,-38.29,-38.73,0,*52
1485349404.14,14286,10.81,73460.0,-2.63,-37.39,-37.57,0,*56
1485349405.39,14287,10.88,73466.3,-2.65,-37.39,-37.69,0,*5C
1485349406.63,14288,10.88,73464.3,-2.63,-37.15,-37.33,0,*54
1485349407.89,14289,10.88,73468.0,-2.67,-38.61,-39.15,0,*57
1485349409.15,14290,10.88,73464.5,-2.67,-38.43,-38.91,0,*52
1485349410.41,14291,10.88,73462.0,-2.67,-38.23,-38.43,0,*5A
1485349411.69,14292,10.88,73464.5,-2.67,-38.23,-38.79,0,*50
1485349412.95,14293,10.88,73466.0,-2.73,-37.39,-37.63,0,*54
1485349414.19,14294,10.88,73466.3,-2.69,-36.31,-36.61,0,*52
1485349415.46,14295,10.88,73464.3,-2.69,-36.79,-37.39,0,*53
1485349416.66,14296,10.88,73464.8,-2.69,-37.27,-37.45,0,*51
1485349417.93,14297,10.88,73464.0,-2.69,-36.79,-37.09,0,*52
1485349419.19,14298,10.88,73464.3,-2.67,-36.97,-37.09,0,*53
1485349420.47,14299,10.88,73466.8,-2.67,-37.63,-37.93,0,*5B
1485349421.71,14300,10.81,73458.8,-2.69,-37.93,-38.17,0,*58
1485349422.95,14301,10.88,73462.5,-2.69,-36.85,-37.09,0,*5F
1485349424.17,14302,10.88,73464.5,-2.69,-38.05,-38.17,0,*5A
1485349425.38,14303,10.88,73460.5,-2.73,-36.73,-37.03,0,*55
1485349426.59,14304,10.81,73462.3,-2.73,-36.85,-37.03,0,*5B
1485349427.86,14305,10.81,73460.8,-2.69,-35.95,-36.25,0,*56
1485349429.1,14306,10.88,73460.0,-2.69,-36.85,-37.21,0,*52
1485349430.34,14307,10.88,73464.5,-2.69,-36.79,-36.97,0,*5C
1485349431.58,14308,10.88,73464.0,-2.69,-36.49,-36.67,0,*5F
1485349432.85,14309,10.88,73464.0,-2.69,-35.95,-36.25,0,*5A
1485349434.1,14310,10.88,73460.3,-2.69,-35.89,-35.95,0,*57
1485349435.36,14311,10.88,73464.3,-2.67,-37.57,-37.99,0,*57
1485349436.59,14312,10.88,73460.0,-2.67,-37.03,-37.27,0,*50
1485349437.81,14313,10.88,73460.3,-2.69,-36.67,-36.97,0,*56
1485349439.07,14314,10.88,73460.8,-2.67,-36.61,-36.97,0,*59
1485349440.36,14315,10.81,73462.0,-2.67,-37.39,-37.63,0,*5E
1485349441.59,14316,10.88,73462.0,-2.67,-36.97,-37.03,0,*5E
1485349442.88,14317,10.88,73460.3,-2.67,-36.25,-36.49,0,*59
1485349444.13,14318,10.88,73462.3,-2.67,-36.61,-36.85,0,*56
1485349445.37,14319,10.88,73464.3,-2.65,-36.55,-36.91,0,*57
1485349446.63,14320,10.81,73462.3,-2.67,-36.97,-37.09,0,*51
1485349447.86,14321,10.88,73460.8,-2.67,-36.67,-36.97,0,*59
1485349449.1,14322,10.88,73464.8,-2.67,-36.43,-36.67,0,*53
1485349450.37,14323,10.88,73460.3,-2.67,-36.31,-36.61,0,*51
1485349451.62,14324,10.88,73456.0,-2.65,-36.25,-36.61,0,*51
1485349452.86,14325,10.88,73458.3,-2.65,-36.43,-36.61,0,*50
1485349454.08,14326,10.88,73460.0,-2.65,-36.19,-36.37,0,*5F
1485349455.29,14327,10.88,73456.5,-2.65,-36.07,-36.43,0,*52
1485349456.5,14328,10.88,73458.8,-2.65,-37.15,-37.33,0,*59
1485349457.76,14329,10.88,73460.3,-2.67,-36.61,-36.97,0,*57
1485349458.99,14330,10.88,73458.8,-2.65,-36.55,-36.79,0,*5A
1485349460.25,14331,10.88,73460.5,-2.67,-37.03,-37.09,0,*5D
1485349461.48,14332,10.88,73462.0,-2.65,-36.55,-36.79,0,*58
1485349462.74,14333,10.88,73460.8,-2.63,-37.15,-37.51,0,*51
1485349463.95,14334,10.88,73460.5,-2.65,-36.43,-36.73,0,*53
1485349465.16,14335,10.88,73464.3,-2.65,-36.19,-36.43,0,*5E
1485349466.39,14336,10.88,73462.5,-2.65,-35.83,-36.07,0,*5D
1485349467.65,14337,10.88,73466.8,-2.65,-36.61,-36.79,0,*5A
1485349468.91,14338,10.88,73462.0,-2.63,-36.43,-36.79,0,*53
1485349470.16,14339,10.88,73462.8,-2.61,-36.13,-36.37,0,*5F
1485349471.41,14340,10.88,73460.3,-2.63,-36.43,-36.79,0,*5C
1485349472.67,14341,10.81,73460.3,-2.63,-36.19,-36.37,0,*58
1485349473.88,14342,10.88,73456.8,-2.61,-36.55,-36.73,0,*51
1485349475.09,14343,10.88,73460.5,-2.61,-36.31,-36.67,0,*57
1485349476.3,14344,10.88,73460.8,-2.61,-36.01,-36.19,0,*5A
1485349477.53,14345,10.81,73460.5,-2.61,-36.01,-36.13,0,*51
1485349478.78,14346,10.88,73462.5,-2.61,-36.13,-36.37,0,*57
1485349480.01,14347,10.88,73460.8,-2.59,-36.55,-36.85,0,*56
1485349481.27,14348,10.88,73460.3,-2.59,-36.49,-36.73,0,*5D
1485349482.55,14349,10.88,73460.8,-2.59,-36.13,-36.37,0,*53
1485349483.81,14350,10.88,73462.8,-2.59,-36.19,-36.49,0,*58
1485349485.01,14351,10.88,73464.0,-2.57,-35.89,-36.07,0,*57
1485349486.24,14352,10.88,73464.0,-2.57,-35.89,-36.13,0,*51
1485349487.49,14353,10.88,73462.0,-2.57,-35.95,-36.13,0,*5D
1485349488.7,14354,10.88,73462.8,-2.57,-35.89,-36.07,0,*52
1485349489.92,14355,10.88,73460.3,-2.57,-36.61,-36.85,0,*5C
1485349491.15,14356,10.88,73464.5,-2.57,-36.13,-36.43,0,*50
1485349492.39,14357,10.88,73460.8,-2.57,-36.25,-36.67,0,*52
1485349493.62,14358,10.88,73458.8,-2.55,-36.01,-36.19,0,*50
1485349494.85,14359,10.88,73464.5,-2.55,-35.71,-36.01,0,*5C
1485349496.11,14360,10.88,73464.3,-2.53,-36.37,-36.61,0,*57
1485349497.36,14361,10.88,73464.8,-2.55,-36.19,-36.37,0,*5F
1485349498.64,14362,10.88,73462.5,-2.55,-36.37,-36.61,0,*53
1485349499.88,14363,10.88,73462.5,-2.53,-36.37,-36.55,0,*53
1485349501.12,14364,10.88,73468.0,-2.53,-36.07,-36.25,0,*50
1485349502.33,14365,10.88,73464.3,-2.53,-36.07,-36.43,0,*51
1485349503.59,14366,10.88,73464.0,-2.55,-36.25,-36.73,0,*57
1485349504.88,14367,10.88,73460.8,-2.55,-37.93,-38.29,0,*5B
1485349506.17,14368,10.88,73464.8,-2.55,-37.21,-37.39,0,*53
1485349507.42,14369,10.88,73466.0,-2.55,-36.55,-36.79,0,*55
1485349508.68,14370,10.88,73466.8,-2.57,-36.49,-36.79,0,*52
1485349509.91,14371,10.88,73466.3,-2.55,-36.43,-36.73,0,*51
1485349511.12,14372,10.88,73466.5,-2.53,-36.19,-36.43,0,*58
1485349512.35,14373,10.88,73464.8,-2.57,-36.43,-36.61,0,*52
1485349513.63,14374,10.88,73464.8,-2.55,-36.37,-36.61,0,*54
1485349514.89,14375,10.88,73460.3,-2.55,-35.83,-36.01,0,*5F
1485349516.1,14376,10.88,73464.3,-2.53,-35.89,-36.07,0,*56
1485349517.34,14377,10.88,73462.8,-2.55,-35.89,-36.01,0,*57
1485349518.57,14378,10.88,73464.0,-2.53,-35.83,-36.19,0,*5D
1485349519.8,14379,10.88,73464.5,-2.53,-36.07,-36.37,0,*5F
1485349521.03,14380,10.88,73462.0,-2.53,-35.83,-36.07,0,*55
1485349522.27,14381,10.88,73462.3,-2.53,-35.83,-36.01,0,*52
1485349523.5,14382,10.88,73456.0,-2.49,-36.13,-36.31,0,*53
1485349524.73,14383,10.88,73458.5,-2.49,-36.91,-37.15,0,*5F
1485349525.98,14384,10.88,73456.3,-2.51,-37.33,-37.69,0,*53
1485349527.19,14385,10.88,73458.5,-2.53,-36.85,-37.33,0,*53
1485349528.42,14386,10.88,73456.0,-2.53,-36.19,-36.61,0,*53
1485349529.63,14387,10.88,73462.0,-2.53,-36.01,-36.19,0,*54
1485349530.87,14388,10.88,73460.3,-2.53,-37.21,-37.87,0,*5E
1485349532.1,14389,10.88,73460.0,-2.53,-36.73,-36.79,0,*59
1485349533.36,14390,10.88,73460.8,-2.55,-37.33,-37.51,0,*59
1485349534.65,14391,10.88,73462.0,-2.55,-37.21,-37.39,0,*55
1485349535.91,14392,10.88,73458.8,-2.55,-36.73,-36.79,0,*55
1485349537.17,14393,10.88,73464.5,-2.55,-36.25,-36.55,0,*59
1485349538.43,14394,10.88,73464.3,-2.55,-36.07,-36.37,0,*5A
1485349539.71,14395,10.88,73462.8,-2.55,-36.25,-36.61,0,*58
1485349540.96,14396,10.88,73464.5,-2.53,-36.25,-36.55,0,*5A
1485349542.19,14397,10.88,73464.0,-2.53,-36.01,-36.25,0,*5A
1485349543.45,14398,10.88,73464.8,-2.55,-36.07,-36.25,0,*55
1485349544.69,14399,10.88,73464.8,-2.53,-36.43,-36.61,0,*52
1485349545.92,14400,10.88,73464.3,-2.53,-36.37,-36.43,0,*56
1485349547.16,14401,10.88,73464.8,-2.51,-36.31,-36.55,0,*54
1485349548.4,14402,10.88,73464.0,-2.53,-36.01,-36.25,0,*51
1485349549.63,14403,10.88,73466.3,-2.53,-36.01,-36.25,0,*50
1485349550.84,14404,10.88,73464.0,-2.53,-35.89,-36.19,0,*5B
1485349552.13,14405,10.88,73462.0,-2.51,-35.83,-35.95,0,*55
1485349553.41,14406,10.88,73464.0,-2.51,-35.83,-36.13,0,*5B
1485349554.64,14407,10.88,73460.8,-2.49,-36.13,-36.31,0,*59
1485349555.87,14408,10.88,73462.8,-2.51,-36.01,-36.19,0,*56
1485349557.12,14409,10.88,73464.0,-2.51,-36.31,-36.49,0,*51
1485349558.38,14410,10.88,73464.0,-2.49,-35.95,-36.13,0,*52
1485349559.62,14411,10.88,73462.8,-2.49,-35.83,-36.01,0,*57
1485349560.85,14412,10.88,73460.3,-2.45,-36.13,-36.43,0,*54
1485349562.08,14413,10.88,73464.8,-2.49,-37.33,-37.63,0,*59
1485349563.34,14414,10.88,73466.0,-2.51,-37.27,-37.63,0,*52
1485349564.59,14415,10.88,73462.8,-2.51,-36.19,-36.49,0,*56
1485349565.85,14416,10.88,73462.5,-2.51,-36.01,-36.13,0,*53
1485349567.08,14417,10.88,73464.5,-2.49,-36.37,-36.55,0,*5C
1485349568.32,14418,10.88,73466.5,-2.51,-36.31,-36.67,0,*5D
1485349569.57,14419,10.88,73464.0,-2.49,-36.13,-36.49,0,*59
1485349570.77,14420,10.88,73464.3,-2.49,-36.67,-36.97,0,*53
1485349572.05,14421,10.88,73462.5,-2.51,-36.79,-37.09,0,*52
1485349573.29,14422,10.88,73464.3,-2.49,-36.49,-36.67,0,*52
1485349574.53,14423,10.88,73466.8,-2.49,-36.13,-36.49,0,*50
1485349575.77,14424,10.88,73468.8,-2.49,-35.95,-36.31,0,*55
1485349577.03,14425,10.88,73468.0,-2.51,-35.95,-36.31,0,*5D
1485349578.23,14426,10.88,73466.3,-2.49,-36.01,-36.31,0,*59
1485349579.49,14427,10.88,73466.5,-2.49,-35.83,-36.13,0,*51
1485349580.69,14428,10.88,73462.8,-2.45,-35.59,-35.71,0,*52
1485349581.95,14429,10.88,73468.5,-2.45,-35.95,-36.13,0,*54
1485349583.22,14430,10.88,73462.8,-2.43,-35.95,-36.25,0,*5F
1485349584.46,14431,10.88,73464.8,-2.45,-35.89,-35.95,0,*5D
1485349585.67,14432,10.88,73464.3,-2.43,-36.07,-36.31,0,*50
1485349586.88,14433,10.88,73466.8,-2.43,-36.67,-36.85,0,*58
1485349588.15,14434,10.88,73464.5,-2.43,-36.25,-36.61,0,*53
1485349589.41,14435,10.88,73464.3,-2.43,-35.95,-36.13,0,*5F
1485349590.64,14436,10.88,73466.0,-2.45,-36.31,-36.49,0,*58
1485349591.88,14437,10.88,73468.5,-2.43,-36.49,-36.67,0,*5C
1485349593.12,14438,10.88,73468.3,-2.43,-36.73,-36.91,0,*53
1485349594.35,14439,10.88,73464.5,-2.45,-36.43,-36.49,0,*52
1485349595.57,14440,10.88,73466.5,-2.43,-36.73,-37.03,0,*56
1485349596.8,14441,10.88,73468.3,-2.43,-36.43,-36.49,0,*5B
1485349598.05,14442,10.88,73466.8,-2.43,-35.95,-36.31,0,*5F
1485349599.3,14443,10.88,73466.3,-2.45,-35.95,-36.13,0,*58
1485349600.54,14444,10.88,73468.3,-2.43,-36.13,-36.43,0,*51
1485349601.78,14445,10.88,73468.5,-2.43,-36.25,-36.43,0,*55
1485349603.02,14446,10.88,73466.8,-2.43,-35.95,-36.07,0,*5E
1485349604.23,14447,10.88,73470.8,-2.43,-35.89,-36.07,0,*52
1485349605.49,14448,10.88,73468.3,-2.43,-35.95,-36.13,0,*55
1485349606.74,14449,10.88,73464.3,-2.43,-35.77,-35.95,0,*55
1485349608.0,14450,10.88,73464.3,-2.41,-35.83,-36.07,0,*5C
1485349609.28,14451,10.88,73464.5,-2.41,-36.25,-36.37,0,*51
1485349610.52,14452,10.88,73470.0,-2.39,-36.19,-36.37,0,*52
1485349611.76,14453,10.88,73468.8,-2.41,-35.71,-35.89,0,*57
1485349612.97,14454,10.88,73464.5,-2.43,-35.71,-35.71,0,*55
1485349614.21,14455,10.88,73466.8,-2.39,-35.47,-35.53,0,*5C
1485349615.45,14456,10.88,73466.3,-2.39,-35.83,-36.07,0,*55
1485349616.66,14457,10.88,73468.5,-2.39,-36.85,-37.03,0,*54
1485349617.92,14458,10.88,73466.3,-2.41,-36.79,-36.85,0,*58
1485349619.16,14459,10.88,73464.8,-2.41,-36.85,-37.15,0,*52
1485349620.42,14460,10.88,73466.0,-2.39,-36.61,-36.79,0,*56
1485349621.66,14461,10.88,73464.3,-2.39,-36.01,-36.25,0,*58
1485349622.93,14462,10.88,73464.5,-2.41,-35.83,-36.01,0,*5B
1485349624.16,14463,10.88,73464.5,-2.41,-36.19,-36.43,0,*5C
1485349625.39,14464,10.88,73464.8,-2.39,-36.01,-36.01,0,*5B
1485349626.63,14465,10.88,73470.3,-2.39,-35.83,-36.01,0,*53
1485349627.88,14466,10.88,73466.0,-2.39,-36.25,-36.43,0,*59
1485349629.13,14467,10.88,73460.0,-2.39,-35.83,-36.01,0,*51
1485349630.38,14468,10.88,73464.0,-2.39,-35.65,-35.65,0,*57
1485349631.65,14469,10.88,73460.3,-2.37,-36.01,-36.13,0,*5B
1485349632.91,14470,10.88,73466.3,-2.37,-36.19,-36.49,0,*55
1485349634.18,14471,10.88,73462.5,-2.37,-36.13,-36.37,0,*57
1485349635.47,14472,10.88,73466.3,-2.37,-36.61,-36.79,0,*5B
1485349636.73,14473,10.88,73468.3,-2.37,-36.73,-36.91,0,*5F
1485349637.98,14474,10.88,73466.0,-2.37,-36.55,-36.55,0,*54
1485349639.25,14475,10.88,73468.0,-2.37,-35.83,-36.01,0,*5C
1485349640.51,14476,10.88,73466.8,-2.37,-37.09,-37.27,0,*5A
1485349641.77,14477,10.88,73466.8,-2.41,-36.07,-36.37,0,*55
1485349643.01,14478,10.88,73466.0,-2.39,-36.43,-36.61,0,*56
1485349644.23,14479,10.88,73464.3,-2.39,-36.85,-37.15,0,*5F
1485349645.45,14480,10.88,73466.5,-2.39,-36.97,-37.15,0,*5A
1485349646.7,14481,10.88,73472.3,-2.39,-36.85,-37.21,0,*5F
1485349647.99,14482,10.88,73470.5,-2.41,-37.21,-37.51,0,*5B
1485349649.28,14483,10.88,73468.0,-2.41,-37.21,-37.39,0,*54
1485349650.54,14484,10.88,73470.3,-2.41,-36.79,-36.85,0,*59
1485349651.78,14485,10.88,73466.0,-2.41,-36.55,-36.67,0,*5A
1485349653.01,14486,10.88,73468.8,-2.41,-36.01,-36.19,0,*51
1485349654.27,14487,10.88,73470.8,-2.41,-36.07,-36.37,0,*5A
1485349655.55,14488,10.88,73468.0,-2.41,-36.61,-36.79,0,*5F
1485349656.83,14489,10.88,73466.8,-2.41,-36.61,-36.61,0,*57
1485349658.05,14490,10.88,73468.5,-2.39,-36.97,-37.33,0,*5F
1485349659.29,14491,10.88,73466.5,-2.41,-36.97,-37.15,0,*55
1485349660.55,14492,10.88,73464.8,-2.43,-35.95,-36.13,0,*52
1485349661.79,14493,10.88,73466.0,-2.43,-35.95,-36.07,0,*56
1485349663.03,14494,10.88,73464.3,-2.43,-35.89,-35.95,0,*54
1485349664.27,14495,10.88,73468.8,-2.41,-36.01,-36.19,0,*53
1485349665.53,14496,10.88,73468.3,-2.41,-35.83,-36.07,0,*56
1485349666.76,14497,10.88,73470.0,-2.41,-36.19,-36.43,0,*57
1485349668.03,14498,10.88,73464.3,-2.41,-36.37,-36.55,0,*53
1485349669.28,14499,10.88,73468.8,-2.41,-35.65,-35.71,0,*53
1485349670.5,14500,10.88,73472.8,-2.39,-36.07,-36.43,0,*58
1485349671.71,14501,10.88,73468.5,-2.39,-36.67,-36.85,0,*55
1485349672.97,14502,10.88,73470.8,-2.41,-36.79,-37.03,0,*59
1485349674.2,14503,10.88,73468.3,-2.39,-36.79,-36.85,0,*58
1485349675.46,14504,10.88,73466.8,-2.41,-36.61,-36.97,0,*5A
1485349676.72,14505,10.88,73464.0,-2.41,-36.19,-36.25,0,*5D
1485349677.98,14506,10.88,73466.0,-2.41,-36.01,-36.25,0,*57
1485349679.27,14507,10.88,73464.8,-2.41,-36.37,-36.61,0,*53
1485349680.5,14508,10.88,73462.8,-2.41,-36.67,-36.85,0,*53
1485349681.78,14509,10.88,73462.8,-2.41,-36.61,-36.61,0,*5E
1485349683.03,14510,10.88,73466.8,-2.39,-36.07,-36.25,0,*59
1485349684.24,14511,10.88,73466.8,-2.39,-36.01,-36.19,0,*51
1485349685.48,14512,10.88,73464.3,-2.39,-35.83,-36.07,0,*54
1485349686.69,14513,10.88,73466.5,-2.39,-36.01,-36.19,0,*53
1485349687.95,14514,10.88,73464.5,-2.41,-35.83,-36.19,0,*52
1485349689.16,14515,10.88,73462.3,-2.39,-36.01,-36.19,0,*55
1485349690.43,14516,10.88,73460.8,-2.37,-35.77,-35.83,0,*5A
1485349691.71,14517,10.88,73462.8,-2.37,-35.77,-35.95,0,*5C
1485349692.97,14518,10.88,73462.8,-2.37,-36.19,-36.37,0,*53
1485349694.23,14519,10.88,73462.0,-2.37,-36.31,-36.37,0,*58
1485349695.51,14520,10.88,73464.3,-2.37,-36.37,-36.49,0,*5D
1485349696.77,14521,10.88,73460.8,-2.37,-36.13,-36.19,0,*5F